Regional Weather Roundup
Issued by NWS Kansas City/Pleasant Hill, MO

Home | Current Version | Previous Version | Graphics & Text | Print | Product List | Glossary Off
Versions: 1 2 3 4 5 6 7 8 9 10 11 12 13 14 15 16 17 18 19 20 21 22 23 24 25 26 27

000
ASUS43 KEAX 200210
RWREAX

WEATHER ROUNDUP FOR EASTERN KANSAS AND NORTHWEST MISSOURI
NATIONAL WEATHER SERVICE KANSAS CITY/PLEASANT HILL MO
800 PM CST MON FEB 19 2018

KSZ040-057-103>105-MOZ028-029-037-043-200300-
...KANSAS CITY METROPOLITAN AREA...

CITY           SKY/WX    TMP DP  RH WIND       PRES   REMARKS
K.C. INTL      CLOUDY    30  27  88 NW7       29.83S WCI  23
K.C. DOWNTOWN  LGT RAIN  34  29  82 NW6       29.83F WCI  29
LEES SUMMIT    CLOUDY    33  33 100 N7        29.82F FOG     WCI  27
OLATHE - IXD   CLOUDY    31  30  96 N9        29.83S WCI  23
OLATHE - OJC   CLOUDY    31  30  96 N7        29.82S WCI  24
LAWRENCE       CLOUDY    32  28  85 N12       29.84S WCI  23

$$

MOZ001>008-011>017-020>025-030>033-038>040-044>046-053-054-200300-
...NORTHERN AND CENTRAL MISSOURI...

CITY           SKY/WX    TMP DP  RH WIND       PRES   REMARKS
ST. JOSEPH     CLOUDY    28  28 100 NW8       29.86S WCI  20
MOSBY            N/A     32  32 100 NW5       29.84S WCI  27
WARRENSBURG    CLOUDY    36  34  93 NW5       29.83S WCI  32
WHITEMAN AFB   DRIZZLE   38  37  94 N7        29.78S WCI  33
CLINTON        LGT RAIN  41  41 100 N8        29.82F
SEDALIA        LGT RAIN  42  42 100 NW7       29.83R
WARSAW         NOT AVBL
CHILLICOTHE      N/A     36  34  92 NW3       29.83S
KIRKSVILLE     LGT RAIN  42  42 100 NW6       29.79S FOG

$$

MOZ041-047>049-056>058-063>065-088>090-097-200300-
...EASTERN AND SOUTHERN MISSOURI...

CITY           SKY/WX    TMP DP  RH WIND       PRES   REMARKS
ST. LOUIS INTL CLOUDY    66  58  75 S18G25    29.85F
SPIRIT OF STL  MOCLDY    68  58  70 S14G24    29.83S
COLUMBIA       TSTM      66  60  81 S17G29    29.80R
JEFFERSON CITY LGT RAIN  66  59  78 S17G24    29.82R
ROLLA          CLOUDY    64  56  75 S18G24    29.85R
OSAGE BEACH    HVY RAIN  63  61  94 SW13G24   29.84S FOG
SPRINGFIELD    MOCLDY    65  59  81 S15       29.81F
BRANSON        CLOUDY    66  57  72 SE12G18   29.88S
JOPLIN         LGT RAIN  64  64 100 S15       29.76F
WEST PLAINS    MOCLDY    66  56  70 S15G23    29.91F

$$

IAZ060-094-KSZ022-034>040-054-083-096-NEZ052-066-093-200300-
...KANSAS...SOUTHEAST NEBRASKA AND IOWA...

CITY           SKY/WX    TMP DP  RH WIND       PRES   REMARKS
TOPEKA         CLOUDY    31  27  85 N8        29.84S WCI  23
MANHATTAN      CLOUDY    29  21  72 N8        29.84S WCI  21
EMPORIA        CLOUDY    31  25  78 N9        29.81S WCI  23
CHANUTE        CLOUDY    35  34  96 N7        29.81F FOG     WCI  29
WICHITA        CLOUDY    31  25  78 NE13      29.79S WCI  21
OMAHA          CLOUDY    22  20  92 N12       29.88F WCI  10
LINCOLN        FLURRIES  20  17  88 N9        29.89F WCI   9
FALLS CITY     CLOUDY    25  23  92 NW9       29.85S WCI  15
LAMONI         CLOUDY    30  28  92 NW12      29.81S WCI  20
DES MOINES     FRZ DRZL  29  27  92 W12       29.83R FOG     WCI  19

$$





USA.gov is the U.S. government's official web portal to all federal, state and local government web resources and services.